Simultaneous Nadir Overpasses (SNOs) Predictions

Prediction of SNOs between AQUA and GOES-15 Satellite Orbit:

Table of predicted SNOs for the next 14.0 days since TLE Epoch: 10/12/2024
Index Date Time (AQUA) AQUA Lat,Lon GOES-15 Lat,Lon Distance(km) Time Diff (sec)
1 10/13/2024 22:00:43 -0.53, 64.64 0.18, 61.28 381.84 80
2 10/14/2024 10:20:39 -0.45, 59.81 -0.15, 61.31 169.89 80
3 10/16/2024 10:02:40 0.49, 64.21 -0.16, 61.32 329.88 80
4 10/16/2024 22:22:25 0.51, 59.43 0.14, 61.29 210.37 80
5 10/18/2024 22:04:21 -0.38, 63.86 0.16, 61.31 290.06 80
6 10/19/2024 10:24:13 -0.65, 59.05 -0.13, 61.35 262.56 80
7 10/21/2024 10:06:06 0.31, 63.48 -0.14, 61.38 239.40 80
8 10/21/2024 22:25:49 0.69, 58.71 0.12, 61.33 298.81 80
9 10/23/2024 22:07:38 -0.27, 63.15 0.13, 61.36 203.96 80
10 10/24/2024 10:27:29 -0.74, 58.35 -0.10, 61.43 349.37 80
